Whitefield, NH

10:27 AM EDT on April 30, 2017 (GMT -0400)
Mount Washington Regional

Weather History for KHIE - January, 2012

Change the Weather History Date:

Saturday, January 14, 2012

  Actual Average Record
Temperature  
Mean Temperature 8 °F -  
Max Temperature 25 °F 21 °F 60 °F (2005)
Min Temperature -9 °F 0 °F -32 °F (1999)
Degree Days  
Heating Degree Days 57    
Moisture  
Dew Point 2 °F    
Average Humidity 72    
Maximum Humidity 86    
Minimum Humidity 60    
Precipitation  
Precipitation 0.00 in - - ()
Sea Level Pressure  
Sea Level Pressure 29.80 in    
Wind  
Wind Speed 8 mph (WNW)    
Max Wind Speed 13 mph    
Max Gust Speed 22 mph    
Visibility 10 miles    
Events Snow    
Averages and records for this station are not official NWS values.
T = Trace of Precipitation, MM = Missing Value Source: NWS Daily Summary

Daily Weather History Graph

Daily Weather History Graph

Search for Another Location

Airport or City:

Trip Planner

Search our weather history database for the weather conditions in past years. The results will help you decide how hot, cold, wet, or windy it might be!

Date:

Astronomy

Jan. 14, 2012 Rise Set
Actual Time 7:19 AM EST 4:30 PM EST
Civil Twilight 6:47 AM EST 5:03 PM EST
Nautical Twilight 6:11 AM EST 5:39 PM EST
Astronomical Twilight 5:36 AM EST 6:14 PM EST
Moon 11:05 PM EST (1/14) 9:47 AM EST (1/14)
Length of Visible Light 10h 16m
Length of Day
9h 11m
Waning Gibbous, 69% of the Moon is Illuminated
Jan 14
Waning Gibbous
Jan 16
Last Quarter
Jan 23
New
Jan 30
First Quarter
Feb 7
Full

Hourly Weather History & Observations

Time (EST) Temp. Windchill Dew Point Humidity Pressure Visibility Wind Dir Wind Speed Gust Speed Precip Events Conditions
12:42 AM 24.8 °F 14.0 °F 21.2 °F 86% 29.43 in 10.0 mi WNW 11.5 mph 18.4 mph 0.00 in   Overcast
12:52 AM 25.0 °F 13.6 °F 19.9 °F 81% 29.48 in 10.0 mi WNW 12.7 mph 21.9 mph 0.00 in   Overcast
1:52 AM 23.0 °F 12.4 °F 17.1 °F 78% 29.53 in 10.0 mi WNW 10.4 mph 20.7 mph 0.00 in   Overcast
2:52 AM 21.0 °F 11.4 °F 15.1 °F 78% 29.57 in 5.0 mi West 8.1 mph - 0.00 in Snow Light Snow
3:09 AM 19.4 °F 9.5 °F 15.8 °F 86% 29.53 in 9.0 mi West 8.1 mph - 0.00 in   Overcast
3:52 AM 19.0 °F 7.5 °F 12.0 °F 74% 29.60 in 10.0 mi West 10.4 mph - 0.00 in   Overcast
4:52 AM 17.1 °F 7.6 °F 10.0 °F 74% 29.64 in 10.0 mi West 6.9 mph 18.4 mph N/A   Overcast
5:52 AM 16.0 °F 8.8 °F 9.0 °F 74% 29.68 in 10.0 mi NNW 4.6 mph - N/A   Overcast
6:52 AM 15.1 °F 2.5 °F 7.0 °F 70% 29.72 in 9.0 mi WNW 10.4 mph - 0.00 in   Overcast
7:52 AM 12.9 °F 1.6 °F 5.0 °F 71% 29.78 in 5.0 mi NW 8.1 mph - 0.00 in Snow Light Snow
8:52 AM 10.9 °F -1.8 °F 1.9 °F 67% 29.82 in 10.0 mi WNW 9.2 mph - 0.00 in   Overcast
9:52 AM 10.0 °F -1.9 °F -0.0 °F 64% 29.84 in 10.0 mi West 8.1 mph - N/A   Overcast
10:42 AM 8.6 °F -5.5 °F -0.4 °F 67% 29.77 in 10.0 mi West 10.4 mph - N/A   Overcast
10:52 AM 9.0 °F -4.2 °F -0.0 °F 67% 29.84 in 10.0 mi West 9.2 mph - N/A   Overcast
11:52 AM 9.0 °F -4.2 °F -0.0 °F 67% 29.85 in 10.0 mi WNW 9.2 mph - N/A   Overcast
12:19 PM 8.6 °F -6.3 °F -0.4 °F 67% 29.78 in 10.0 mi West 11.5 mph - N/A   Scattered Clouds
12:48 PM 8.6 °F -1.3 °F -0.4 °F 67% 29.79 in 10.0 mi West 5.8 mph - N/A   Mostly Cloudy
12:52 PM 9.0 °F -2.2 °F -0.0 °F 67% 29.85 in 10.0 mi WNW 6.9 mph - N/A   Mostly Cloudy
1:31 PM 10.4 °F -2.4 °F -0.4 °F 62% 29.79 in 10.0 mi West 9.2 mph - N/A   Scattered Clouds
1:52 PM 10.0 °F -3.7 °F -0.0 °F 64% 29.86 in 10.0 mi WNW 10.4 mph - N/A   Partly Cloudy
2:52 PM 9.0 °F -6.6 °F -2.0 °F 61% 29.88 in 10.0 mi WNW 12.7 mph - N/A   Clear
3:52 PM 6.1 °F -0.9 °F -5.1 °F 60% 29.92 in 10.0 mi Variable 3.5 mph - N/A   Clear
4:52 PM 3.9 °F -3.4 °F -6.0 °F 64% 29.95 in 10.0 mi WSW 3.5 mph - N/A   Clear
5:52 PM 1.9 °F - -6.0 °F 69% 29.98 in 10.0 mi Calm Calm - N/A   Clear
6:52 PM -0.9 °F -8.9 °F -6.0 °F 79% 30.01 in 10.0 mi North 3.5 mph - N/A   Clear
7:52 PM -2.9 °F - -8.0 °F 79% 30.04 in 10.0 mi Calm Calm - N/A   Clear
8:52 PM -4.0 °F - -9.9 °F 76% 30.06 in 10.0 mi Calm Calm - N/A   Clear
10:52 PM -9.0 °F - -14.1 °F 79% 30.10 in 10.0 mi Calm Calm - N/A   Clear
11:52 PM -9.9 °F - -14.1 °F 82% 30.11 in 10.0 mi Calm Calm - N/A   Partly Cloudy